+ View the NASA Portal
+ Center for Near-Earth Object Studies
IMPORTANT:
The SSD Announcement email list is now available. Major changes are coming in the near future, including possible hostname and/or URL changes. To be notified of such changes, subscribe to this email list.
Please visit
this page
for more details.
Don't show this message again
JPL Small-Body Database Browser
Search:
[
help
]
215173 (2000 GO73)
Classification:
Main-belt Asteroid
SPK-ID:
2215173
[
Ephemeris
|
Orbit Diagram
|
Orbital Elements
|
Mission Design
|
Physical Parameters
|
Discovery Circumstances
|
Close-Approach Data
]
[ show orbit diagram ]
Orbital Elements at Epoch 2458600.5 (2019-Apr-27.0) TDB
Reference:
JPL 19
(heliocentric ecliptic J2000)
Element
Value
Uncertainty (1-sigma)
Units
e
.18562085001942
6.3523e-08
a
2.65767087152891
1.185e-08
au
q
2.164351745283861
1.6964e-07
au
i
12.89438792016806
7.2902e-06
deg
node
219.7099565165049
1.8773e-05
deg
peri
174.4766369992777
2.3111e-05
deg
M
322.3826412403002
1.1424e-05
deg
t
p
2458765.862115586141
(2019-Oct-09.36211559)
5.0315e-05
TDB
period
1582.52369581
4.33
1.0584e-05
2.898e-08
d
yr
n
.2274847453805343
1.5214e-09
deg/d
Q
3.150989997773959
1.4049e-08
au
Orbit Determination Parameters
# obs. used (total)
666
data-arc span
7176 days (19.65 yr)
first obs. used
2000-04-05
last obs. used
2019-11-28
planetary ephem.
DE431
SB-pert. ephem.
SB431-N16
condition code
0
norm. resid. RMS
.52601
source
ORB
producer
Otto Matic
solution date
2019-Dec-04 16:59:44
Additional Information
Earth MOID
= 1.17097 au
Jupiter MOID
= 2.27875 au
T_jup
= 3.327
[ hide covariance matrix ]
Orbital Elements at Epoch 2456977.5 (2014-Nov-16.0) TDB
Reference:
JPL 19
(heliocentric ecliptic J2000)
Element
Value
Uncertainty (1-sigma)
Units
e
.1850673073733694
6.3301e-08
q
2.166890671887133
1.6886e-07
au
t
p
2457177.043677951266
(2015-Jun-03.54367795)
5.077e-05
TDB
node
219.7800352251515
1.8817e-05
deg
peri
173.4302554249134
2.319e-05
deg
i
12.87291640952884
7.2841e-06
deg
Orbit Determination Parameters
# obs. used (total)
666
data-arc span
7176 days (19.65 yr)
first obs. used
2000-04-05
last obs. used
2019-11-28
planetary ephem.
DE431
SB-pert. ephem.
SB431-N16
condition code
0
norm. resid. RMS
.52601
source
ORB
producer
Otto Matic
solution date
2019-Dec-04 16:59:44
Additional Information
Jupiter MOID
= 2.27875 au
T_jup
= 3.327
Orbit Covariance (6×6)
e
q
tp
node
peri
i
e
4.007073135926848E-15
-1.067165325944001E-14
1.105249940078065E-13
-1.210160022426827E-14
-6.425543912439252E-15
-4.895552732494012E-15
q
-1.067165325944001E-14
2.851323561694208E-14
-3.257293179541615E-13
3.323401605490224E-14
6.210739971915804E-15
1.339696097301994E-14
tp
1.105249940078065E-13
-3.257293179541615E-13
2.577599615092368E-9
-1.543049637624888E-12
6.961749774047134E-10
1.571500942974226E-12
node
-1.210160022426827E-14
3.323401605490224E-14
-1.543049637624888E-12
3.540635313497469E-10
-3.451827297638287E-10
-1.222270617546447E-11
peri
-6.425543912439252E-15
6.210739971915804E-15
6.961749774047134E-10
-3.451827297638287E-10
5.377778967311945E-10
1.230342155380463E-11
i
-4.895552732494012E-15
1.339696097301994E-14
1.571500942974226E-12
-1.222270617546447E-11
1.230342155380463E-11
5.305876300898285E-11
[
Ephemeris
|
Orbit Diagram
|
Orbital Elements
|
Mission Design
|
Physical Parameters
|
Discovery Circumstances
|
Close-Approach Data
]
Physical Parameter Table
Parameter
Symbol
Value
Units
Sigma
Reference
Notes
absolute magnitude
H
15.1
n/a
MPO300075
215173 (2000 GO73)
Discovered 2000-Apr-05 by LINEAR at Socorro
Reference:
20090607/Numbers.arc
Last Updated:
2009-06-08
[ show close-approach data ]
Alternate Designations
2000 GO73
= 2006 QP100
[
Ephemeris
|
Orbit Diagram
|
Orbital Elements
|
Mission Design
|
Physical Parameters
|
Discovery Circumstances
|
Close-Approach Data
]
2019-Dec-07 01:48 UT
(server date/time)
Site Manager:
Ryan S. Park
Webmaster
:
Alan B. Chamberlin